[[{"header":{"parameterUnit":"m.s-1","parameterCategory":1,"la1":30.2991,"la2":30.254,"lo1":-89.0895,"lo2":-89.0444,"dy":0.0017,"dx":0.0017,"nx":28,"ny":28,"refTime":"2025-11-21T09:00:00:Z","depth":0,"parameterNumber":2,"parameterNumberName":"U-component_of_WINDS"},"data":[0,0,0,0,0,0,0,0,0,0,0,0,0,0,0,0,0,0,0,0,0,0,0,0,0,0,0,0,0,0,0,0,0,0,0,0,0,0,0,0,0,0,0,0,0,0,0,0,0,0,0,0,0,0,0,0,0,0,0.2373,0.2375,0,0.254,0.2542,0.2544,0.2623,0.2623,0.2622,0.2622,0.2795,0.2799,0.2804,0,0,0,0,0,0,0,0,0,0,0,0,0,0.2126,0.213,0.2373,0.2375,0.2377,0.2539,0.2542,0.2544,0.2623,0.2623,0.2622,0.2622,0.2793,0.2799,0.2804,0,0,0,0,0,0,0,0,0,0,0,0,0,0.2257,0.2131,0.2373,0.2436,0.2443,0.2539,0.2542,0.2545,0.2623,0.2623,0.2622,0.2622,0.2792,0.2798,0.2805,0.2851,0,0,0.2827,0.283,0,0,0,0,0,0,0,0,0.2249,0.2266,0.2425,0.2432,0.244,0.256,0.2518,0.2648,0.2623,0.2555,0.2622,0.2622,0.2717,0.273,0.2762,0.2859,0.2867,0.2827,0.2832,0.2835,0.2837,0,0,0,0,0,0,0,0.224,0.2259,0.2439,0.2427,0.2436,0.2457,0.2475,0.2543,0.2635,0.2561,0.2567,0.2585,0.2721,0.2755,0.2766,0.2869,0.2827,0.2833,0.2838,0.284,0.3015,0.3015,0,0,0,0,0,0,0.222,0.2251,0.2434,0.2444,0.2342,0.2461,0.2482,0.2522,0.2634,0.2651,0.2585,0.2588,0.2743,0.2758,0.2773,0.2835,0.2835,0.2841,0.2845,0.3014,0.3015,0.3015,0,0,0,0,0,0,0.2215,0.2236,0.2427,0.2349,0.2375,0.2466,0.251,0.2525,0.2559,0.2653,0.267,0.2602,0.2743,0.2763,0.2831,0.2842,0.2844,0.2851,0.3014,0.3014,0.3015,0.2959,0,0,0,0,0,0,0.2207,0.2233,0.2251,0.2349,0.2379,0.2482,0.251,0.2529,0.257,0.2576,0.2673,0.2689,0.2745,0.282,0.2838,0.2852,0.2856,0.3013,0.3014,0.3015,0.296,0.2957,0.2955,0,0,0,0,0,0.2198,0.2229,0.2251,0.2273,0.2403,0.2482,0.25,0.2562,0.2571,0.259,0.2651,0.2686,0.2838,0.2827,0.2848,0.2863,0.3013,0.3014,0.3015,0.2961,0.2958,0.2955,0,0,0,0,0,0,0.213,0.2243,0.2269,0.2332,0.2397,0.2495,0.2521,0.2557,0.2621,0.2623,0.2699,0.272,0.2782,0.283,0.2815,0.2914,0.2929,0.2934,0.2881,0.2879,0.2876,0.2863,0.2862,0,0,0,0,0,0.2122,0.2176,0.2272,0.2319,0.235,0.243,0.2467,0.2509,0.258,0.2608,0.2673,0.2741,0.2804,0.2844,0.2907,0.2967,0.299,0.2989,0.2986,0.2983,0.2987,0.3024,0.3024,0.3018,0.3018,0.3018,0,0,0.2107,0.2175,0.2205,0.2307,0.2362,0.2418,0.2452,0.2509,0.2551,0.2617,0.2685,0.2736,0.2816,0.2881,0.2913,0.2923,0.2994,0.2985,0.2982,0.2987,0.3024,0.3025,0.3025,0.3019,0.3019,0.3019,0,0,0.2107,0.2164,0.2209,0.2264,0.2347,0.24,0.2411,0.2504,0.254,0.261,0.2661,0.2712,0.2819,0.2875,0.2917,0.2939,0.2975,0.2958,0.2945,0.298,0.298,0.2981,0.299,0.2992,0.2961,0.2961,0.2961,0,0.2078,0.2163,0.2228,0.2283,0.2327,0.2388,0.2435,0.2485,0.2585,0.2614,0.2623,0.2759,0.2818,0.2897,0.2902,0.2934,0.295,0.2947,0.2974,0.2976,0.2978,0.2987,0.299,0.2959,0.2959,0.2959,0.2959,0,0.2123,0.2181,0.2208,0.2302,0.2349,0.2399,0.2473,0.2513,0.2552,0.2604,0.2676,0.2748,0.2827,0.2849,0.2888,0.2934,0.2938,0.296,0.2976,0.2975,0.2985,0.2989,0.2955,0.2956,0.2957,0.2957,0,0,0.2084,0.2215,0.2223,0.2267,0.2364,0.2411,0.2464,0.2541,0.2574,0.2641,0.2689,0.2778,0.28,0.2847,0.2893,0.2923,0.2938,0.2942,0.2945,0.2939,0.2994,0.2977,0.298,0.2962,0.2963,0.2963,0.2988,0,0.2099,0.2197,0.2258,0.2332,0.2387,0.2446,0.2494,0.2558,0.2609,0.2664,0.272,0.2783,0.2805,0.2835,0.2868,0.2929,0.295,0.2928,0.3008,0.301,0.2986,0.2985,0.2967,0.2986,0.2992,0.2993,0.2993,0,0.2128,0.2193,0.2272,0.2363,0.2389,0.243,0.2506,0.2557,0.2633,0.2667,0.2721,0.2767,0.2828,0.2838,0.2923,0.2907,0.2944,0.2979,0.2981,0.2991,0.3001,0.2996,0.2994,0.2997,0.3,0.2999,0.2999,0,0.2092,0.22,0.2261,0.2297,0.2405,0.2433,0.2479,0.2554,0.2597,0.2664,0.2693,0.2766,0.2806,0.2862,0.2927,0.2929,0.3006,0.3022,0.3037,0.3036,0.3051,0.3049,0.3055,0.3073,0.3073,0.3073,0.3073,0,0.2102,0.2148,0.2247,0.2285,0.2339,0.2409,0.2461,0.2513,0.2579,0.2629,0.2685,0.2731,0.2814,0.287,0.2922,0.2985,0.3002,0.3033,0.3046,0.3028,0.3024,0.3053,0.3054,0.3074,0.3074,0.3074,0.3074,0,0.2071,0.2139,0.221,0.2307,0.2332,0.2368,0.2451,0.2491,0.2544,0.2607,0.2625,0.271,0.2779,0.285,0.2944,0.2978,0.304,0.3058,0.3014,0.3022,0.3033,0.3031,0.3059,0.3066,0.3078,0.3078,0.3078,0,0.2073,0.211,0.221,0.2247,0.2292,0.2351,0.2395,0.2466,0.251,0.2599,0.2628,0.2701,0.2764,0.2872,0.2942,0.3015,0.3035,0.304,0.3046,0.3027,0.3036,0.3033,0.3038,0.3037,0.3037,0.3036,0.3036,0,0.2068,0.21,0.2161,0.2234,0.2284,0.2345,0.2409,0.2436,0.252,0.2566,0.2638,0.2686,0.2782,0.2854,0.2935,0.2984,0.3024,0.3033,0.3041,0.3023,0.2996,0.3011,0.3008,0.3032,0.3033,0.3033,0.3033,0.3033,0.2054,0.209,0.2166,0.2233,0.2288,0.2346,0.2388,0.2447,0.2507,0.259,0.2629,0.2701,0.2777,0.2889,0.2938,0.2996,0.3007,0.3017,0.302,0.3022,0.3018,0.2986,0.3011,0.3011,0.3011,0.3011,0.3011,0,0.2053,0.2105,0.2165,0.2252,0.2304,0.2337,0.2409,0.2451,0.2513,0.258,0.264,0.2723,0.2793,0.287,0.2946,0.2977,0.2998,0.2995,0.2993,0.3004,0.3003,0.2989,0.2977,0.2977,0.2977,0.2977,0.2977,0.2977,0.2059,0.2121,0.2162,0.2254,0.2306,0.2376,0.2414,0.2469,0.2523,0.2612,0.2671,0.272,0.2792,0.2873,0.294,0.2961,0.2986,0.2978,0.3004,0.3002,0.3004,0.3007,0.2994,0.2983,0.2983,0.3001,0.3001,0.3001]},{"header":{"parameterUnit":"m.s-1","parameterCategory":1,"la1":30.2991,"la2":30.254,"lo1":-89.0895,"lo2":-89.0444,"dy":0.0017,"dx":0.0017,"nx":28,"ny":28,"refTime":"2025-11-21T09:00:00:Z","depth":0,"parameterNumber":3,"parameterNumberName":"V-component_of_WINDS"},"data":[0,0,0,0,0,0,0,0,0,0,0,0,0,0,0,0,0,0,0,0,0,0,0,0,0,0,0,0,0,0,0,0,0,0,0,0,0,0,0,0,0,0,0,0,0,0,0,0,0,0,0,0,0,0,0,0,0,0,0.5467,0.5466,0,0.5323,0.5322,0.532,0.525,0.525,0.5251,0.5251,0.5099,0.5095,0.5091,0,0,0,0,0,0,0,0,0,0,0,0,0,0.5677,0.5674,0.5467,0.5465,0.5464,0.5323,0.5321,0.5319,0.525,0.525,0.5251,0.5251,0.5101,0.5096,0.5091,0,0,0,0,0,0,0,0,0,0,0,0,0,0.5565,0.5672,0.5468,0.5412,0.5406,0.5324,0.5321,0.5319,0.525,0.525,0.5251,0.5251,0.5102,0.5096,0.509,0.5051,0,0,0.5072,0.5069,0,0,0,0,0,0,0,0,0.5571,0.5557,0.5422,0.5416,0.5409,0.5305,0.534,0.5229,0.525,0.5309,0.5251,0.5251,0.5167,0.5156,0.5129,0.5044,0.5037,0.5071,0.5067,0.5065,0.5063,0,0,0,0,0,0,0,0.5579,0.5563,0.541,0.542,0.5412,0.5393,0.5377,0.5319,0.524,0.5304,0.5299,0.5283,0.5164,0.5135,0.5125,0.5035,0.5071,0.5066,0.5062,0.506,0.4908,0.4907,0,0,0,0,0,0,0.5596,0.557,0.5415,0.5406,0.5492,0.5389,0.5371,0.5338,0.524,0.5225,0.5283,0.528,0.5145,0.5132,0.5119,0.5064,0.5065,0.5059,0.5056,0.4908,0.4908,0.4907,0,0,0,0,0,0,0.5601,0.5583,0.542,0.5486,0.5464,0.5386,0.5349,0.5335,0.5306,0.5224,0.5209,0.5268,0.5145,0.5128,0.5068,0.5058,0.5056,0.5051,0.4908,0.4908,0.4907,0.4957,0,0,0,0,0,0,0.5608,0.5586,0.5571,0.5487,0.5461,0.5374,0.5348,0.5332,0.5296,0.5291,0.5206,0.5192,0.5143,0.5077,0.5062,0.505,0.5046,0.4909,0.4908,0.4908,0.4956,0.4958,0.496,0,0,0,0,0,0.5615,0.5591,0.5571,0.5552,0.5442,0.5373,0.5359,0.5304,0.5296,0.528,0.5226,0.5195,0.5062,0.5072,0.5054,0.504,0.4909,0.4908,0.4908,0.4955,0.4958,0.496,0,0,0,0,0,0,0.5675,0.5579,0.5556,0.5503,0.5447,0.5362,0.534,0.5309,0.5253,0.5251,0.5184,0.5165,0.5111,0.5069,0.5082,0.4995,0.4982,0.4978,0.5025,0.5027,0.5029,0.504,0.5041,0,0,0,0,0,0.5683,0.5637,0.5554,0.5516,0.5489,0.5419,0.5388,0.535,0.5289,0.5265,0.5207,0.5148,0.5092,0.5057,0.5002,0.4949,0.4928,0.4931,0.4933,0.4935,0.4932,0.4898,0.4898,0.4904,0.4904,0.4904,0,0,0.5697,0.5638,0.5613,0.5526,0.5478,0.543,0.54,0.5351,0.5314,0.5257,0.5197,0.5153,0.5082,0.5025,0.4997,0.4988,0.4925,0.4934,0.4937,0.4932,0.4897,0.4897,0.4896,0.4904,0.4904,0.4904,0,0,0.5698,0.565,0.5612,0.5564,0.5493,0.5446,0.5437,0.5356,0.5325,0.5264,0.5219,0.5173,0.508,0.5031,0.4993,0.4974,0.4942,0.4958,0.4969,0.4937,0.4936,0.4936,0.4927,0.4925,0.4955,0.4955,0.4955,0,0.5724,0.5652,0.5596,0.5549,0.5511,0.5457,0.5417,0.5373,0.5287,0.526,0.5252,0.5133,0.5081,0.5011,0.5006,0.4978,0.4964,0.4967,0.4941,0.494,0.4938,0.4929,0.4926,0.4957,0.4957,0.4956,0.4956,0,0.5687,0.5637,0.5615,0.5533,0.5492,0.5449,0.5384,0.5349,0.5315,0.5269,0.5206,0.5143,0.5072,0.5053,0.5019,0.4977,0.4974,0.4955,0.494,0.4941,0.4931,0.4927,0.496,0.4959,0.4959,0.4958,0,0,0.5722,0.5609,0.5602,0.5563,0.548,0.5439,0.5392,0.5324,0.5295,0.5237,0.5194,0.5115,0.5096,0.5054,0.5014,0.4986,0.4972,0.4969,0.4966,0.4971,0.4919,0.4933,0.4931,0.495,0.495,0.4949,0.4924,0,0.5711,0.5626,0.5573,0.5508,0.546,0.5408,0.5367,0.531,0.5265,0.5216,0.5166,0.5111,0.5091,0.5065,0.5035,0.498,0.496,0.4981,0.4908,0.4906,0.4927,0.4926,0.4941,0.4921,0.492,0.492,0.4919,0,0.5686,0.563,0.5561,0.5481,0.5458,0.5423,0.5355,0.531,0.5243,0.5212,0.5164,0.5123,0.5069,0.506,0.4983,0.4998,0.4965,0.4933,0.4931,0.4921,0.4912,0.4914,0.4914,0.491,0.4913,0.4913,0.4914,0,0.5717,0.5624,0.557,0.5539,0.5444,0.542,0.5379,0.5312,0.5274,0.5214,0.5188,0.5123,0.5087,0.5036,0.4978,0.4977,0.4905,0.4892,0.4876,0.4878,0.4863,0.4865,0.4856,0.4844,0.4844,0.4844,0.4844,0,0.5709,0.5669,0.5582,0.5549,0.5501,0.544,0.5393,0.5348,0.5289,0.5244,0.5194,0.5153,0.5079,0.5028,0.4981,0.4923,0.4908,0.4879,0.4867,0.4883,0.4887,0.486,0.4859,0.4843,0.4844,0.4844,0.4844,0,0.5735,0.5676,0.5614,0.5529,0.5507,0.5475,0.5402,0.5366,0.5318,0.5262,0.5245,0.517,0.5107,0.5044,0.4959,0.4927,0.487,0.4854,0.4893,0.4886,0.4873,0.4875,0.4846,0.4838,0.4833,0.4834,0.4834,0,0.5734,0.5702,0.5613,0.5581,0.5541,0.5489,0.545,0.5387,0.5348,0.5268,0.5242,0.5175,0.5119,0.502,0.4956,0.489,0.4872,0.4866,0.4861,0.4877,0.4869,0.4872,0.4867,0.4868,0.4868,0.4869,0.4869,0,0.5737,0.5709,0.5655,0.5591,0.5546,0.5492,0.5435,0.5411,0.5337,0.5295,0.523,0.5187,0.5099,0.5033,0.4959,0.4915,0.4878,0.4871,0.4863,0.4879,0.4902,0.4887,0.4897,0.4872,0.4871,0.4871,0.4871,0.4871,0.5748,0.5716,0.5649,0.559,0.5541,0.5489,0.5451,0.5399,0.5345,0.527,0.5235,0.517,0.5101,0.4998,0.4954,0.49,0.4891,0.4881,0.4878,0.4876,0.4879,0.4912,0.4887,0.4887,0.4886,0.4886,0.4886,0,0.5747,0.5701,0.5647,0.5571,0.5524,0.5495,0.5431,0.5393,0.5337,0.5276,0.5222,0.5146,0.5081,0.5012,0.4942,0.4912,0.4894,0.4896,0.4897,0.4887,0.4892,0.4905,0.4912,0.4912,0.4912,0.4912,0.4912,0.4912,0.5741,0.5685,0.5648,0.5566,0.552,0.5456,0.5422,0.5373,0.5324,0.5243,0.5189,0.5145,0.5079,0.5004,0.4942,0.4923,0.4899,0.4906,0.4882,0.4888,0.4887,0.4885,0.4896,0.4902,0.4902,0.4881,0.4881,0.488]}]]